Date String (YYYY-MM-DD hh:mm:ss) UTC,Instrument flags,absolute air pressure of the measurement (hPa),sample flow rate (lpm),inlet stack bypass flow (lpm),air temperature of the measurement (°C),ambient temperature measured by the external sensor (°C),aerosol sample conditioner tube jacket temperature (°C),OPC LED temperature (°C),internal box temperature (°C),relative humidity of the measurement (%),span deviation,mass concentration of particles derived from Lorenz-Mie calculation of OPC scattering (μg/m³),mass concentration of particles derived from Lorenz-Mie calculation of OPC scattering (μg/m³),mass concentration of particles derived from Lorenz-Mie calculation of OPC scattering (μg/m³)
DateTimeUTC,F1_M11,P_M11,Q1_M11,Q2_M11,T1_M11,T2_M11,T3_M11,T4_M11,T5_M11,U1_M11,ZSPAN_M11,X0_M11,X2_M11,X1_M11
2023-09-24 13:00:00,SystemResetWarning,0832.2,5.00,000.00,027.9,026.4,000.0,036.3,029.4,12.0,0000.0,0006.89,0003.57,0002.98
2023-09-24 13:01:00,SystemResetWarning,0832.2,5.00,000.00,027.9,026.4,000.0,036.3,029.5,12.0,0000.0,0007.01,0003.54,0002.97
2023-09-24 13:02:00,SystemResetWarning,0832.2,5.00,000.00,027.9,026.4,000.0,036.3,029.5,12.0,0000.0,0007.54,0003.55,0002.97
2023-09-24 13:03:00,SystemResetWarning,0832.2,5.00,000.00,027.9,026.4,000.0,036.3,029.4,12.0,0000.0,0007.51,0003.54,0002.99
2023-09-24 13:04:00,SystemResetWarning,0832.2,4.99,000.00,027.9,026.4,000.0,036.3,029.4,12.1,0000.0,0007.67,0003.55,0003.01
2023-09-24 13:05:00,SystemResetWarning,0832.2,4.99,000.00,027.9,026.4,000.0,036.3,029.4,12.2,0000.7,0008.27,0003.55,0003.00
2023-09-24 13:06:00,SystemResetWarning,0832.2,5.00,000.00,027.9,026.4,000.0,036.3,029.4,12.2,0001.0,0008.43,0003.55,0003.00
2023-09-24 13:07:00,SystemResetWarning,0832.3,5.01,000.00,027.9,026.4,000.0,036.3,029.4,12.2,0001.2,0008.41,0003.56,0003.03
2023-09-24 13:08:00,SystemResetWarning,0832.3,5.01,000.00,027.9,026.4,000.0,036.3,029.4,12.2,0001.8,0008.26,0003.52,0003.02
2023-09-24 13:09:00,SystemResetWarning,0832.3,4.99,000.00,027.9,026.4,000.0,036.3,029.5,12.3,0001.8,0008.82,0003.48,0003.02
2023-09-24 13:10:00,SystemResetWarning,0832.3,4.98,000.00,027.9,026.4,000.0,036.3,029.5,12.2,0000.6,0008.84,0003.45,0003.01
2023-09-24 13:11:00,SystemResetWarning,0832.3,5.00,000.00,027.9,026.4,000.0,036.3,029.5,12.2,0001.4,0008.94,0003.46,0003.01
2023-09-24 13:12:00,SystemResetWarning,0832.3,5.01,000.00,027.9,026.4,000.0,036.3,029.5,12.3,0001.9,0009.36,0003.47,0003.00
2023-09-24 13:13:00,SystemResetWarning,0832.3,4.99,000.00,027.9,026.4,000.0,036.3,029.5,12.3,0002.5,0008.85,0003.47,0003.01
2023-09-24 13:14:00,SystemResetWarning,0832.3,5.00,000.00,027.9,026.4,000.0,036.3,029.5,12.5,0000.6,0008.83,0003.48,0003.01
2023-09-24 13:15:00,SystemResetWarning,0832.3,4.99,000.00,027.9,026.4,000.0,036.3,029.5,12.6,0000.0,0008.79,0003.47,0003.01
2023-09-24 13:16:00,SystemResetWarning,0832.3,4.99,000.00,027.9,026.4,000.0,036.3,029.5,12.7,0000.0,0008.06,0003.44,0003.00
2023-09-24 13:17:00,SystemResetWarning,0832.3,5.00,000.00,027.9,026.4,000.0,036.3,029.5,12.8,0000.0,0007.61,0003.43,0003.01
2023-09-24 13:18:00,SystemResetWarning,0832.3,5.00,000.00,027.9,026.4,000.0,036.3,029.5,12.8,0000.0,0007.66,0003.44,0003.01
2023-09-24 13:19:00,SystemResetWarning,0832.3,5.00,000.00,027.9,026.4,000.0,036.3,029.5,12.8,0000.0,0007.73,0003.47,0003.02
2023-09-24 13:20:00,SystemResetWarning,0832.3,5.00,000.00,027.9,026.4,000.0,036.3,029.5,12.8,0000.0,0007.81,0003.48,0003.04
2023-09-24 13:21:00,SystemResetWarning,0832.3,5.00,000.00,027.9,026.4,000.0,036.3,029.5,12.9,0000.0,0007.46,0003.48,0003.06
2023-09-24 13:22:00,SystemResetWarning,0832.3,5.02,000.00,027.9,026.4,000.0,036.3,029.5,13.0,0000.0,0007.48,0003.49,0003.07
2023-09-24 13:23:00,SystemResetWarning,0832.3,5.00,000.00,027.9,026.4,000.0,036.3,029.5,13.0,0000.0,0006.87,0003.49,0003.08
2023-09-24 13:24:00,SystemResetWarning,0832.3,5.00,000.00,027.9,026.4,000.0,036.3,029.5,13.1,0000.0,0006.56,0003.49,0003.09
2023-09-24 13:25:00,SystemResetWarning,0832.4,5.00,000.00,027.9,026.5,000.0,036.3,029.5,13.1,0000.0,0006.43,0003.46,0003.08
2023-09-24 13:26:00,SystemResetWarning,0832.4,5.00,000.00,028.0,026.5,000.0,036.3,029.6,13.2,0000.0,0006.40,0003.44,0003.08
2023-09-24 13:27:00,SystemResetWarning,0832.4,5.00,000.00,028.0,026.5,000.0,036.3,029.6,13.3,0000.0,0006.51,0003.48,0003.09
2023-09-24 13:28:00,SystemResetWarning,0832.4,4.99,000.00,028.0,026.5,000.0,036.3,029.6,13.4,0000.0,0006.67,0003.50,0003.09
2023-09-24 13:29:00,SystemResetWarning,0832.4,5.00,000.00,028.0,026.5,000.0,036.3,029.6,13.3,0000.0,0006.61,0003.49,0003.08
2023-09-24 13:30:00,SystemResetWarning,0832.3,5.00,000.00,028.0,026.5,000.0,036.3,029.6,13.1,0000.0,0006.95,0003.50,0003.06
2023-09-24 13:31:00,SystemResetWarning,0832.3,5.00,000.00,028.0,026.5,000.0,036.3,029.6,13.0,0000.0,0006.53,0003.50,0003.05
2023-09-24 13:32:00,SystemResetWarning,0832.3,5.01,000.00,028.0,026.5,000.0,036.3,029.6,12.6,0000.0,0006.42,0003.50,0003.06
2023-09-24 13:33:00,SystemResetWarning,0832.3,5.00,000.00,028.0,026.5,000.0,036.3,029.6,11.7,0000.0,0007.45,0003.52,0003.08
2023-09-24 13:34:00,SystemResetWarning,0832.3,4.99,000.00,028.0,026.5,000.0,036.3,029.6,12.6,0000.0,0007.52,0003.55,0003.09
2023-09-24 13:35:00,SystemResetWarning,0832.3,5.01,000.00,028.0,026.5,000.0,036.3,029.6,12.9,0000.0,0008.23,0003.59,0003.10
2023-09-24 13:36:00,SystemResetWarning,0832.3,5.01,000.00,028.0,026.5,000.0,036.3,029.6,12.5,0000.0,0008.69,0003.62,0003.10
2023-09-24 13:37:00,SystemResetWarning,0832.4,4.98,000.00,028.0,026.5,000.0,036.3,029.6,11.9,0000.0,0009.21,0003.62,0003.10
2023-09-24 13:38:00,SystemResetWarning,0832.4,5.00,000.00,028.0,026.5,000.0,036.3,029.6,12.4,0000.0,0009.26,0003.61,0003.11
2023-09-24 13:39:00,SystemResetWarning,0832.4,5.00,000.00,028.0,026.5,000.0,036.3,029.6,12.4,0000.0,0009.41,0003.63,0003.12
2023-09-24 13:40:00,SystemResetWarning,0832.4,5.00,000.00,028.0,026.5,000.0,036.4,029.6,12.2,0000.0,0009.59,0003.68,0003.14
2023-09-24 13:41:00,SystemResetWarning,0832.3,5.00,000.00,028.0,026.5,000.0,036.4,029.6,11.7,0000.0,0009.40,0003.66,0003.15
2023-09-24 13:42:00,SystemResetWarning,0832.3,5.00,000.00,028.0,026.5,000.0,036.4,029.6,11.7,0000.0,0009.41,0003.65,0003.14
2023-09-24 13:43:00,SystemResetWarning,0832.3,4.99,000.00,028.0,026.5,000.0,036.4,029.6,11.6,0000.0,0009.35,0003.66,0003.14
2023-09-24 13:44:00,SystemResetWarning,0832.3,5.01,000.00,028.0,026.5,000.0,036.4,029.6,11.8,0000.0,0008.65,0003.66,0003.14
2023-09-24 13:45:00,SystemResetWarning,0832.4,5.00,000.00,028.0,026.5,000.0,036.4,029.6,12.4,0000.0,0008.70,0003.64,0003.13
2023-09-24 13:46:00,SystemResetWarning,0832.4,5.00,000.00,028.0,026.5,000.0,036.4,029.6,12.9,0000.0,0008.10,0003.58,0003.12
2023-09-24 13:47:00,SystemResetWarning,0832.4,5.01,000.00,028.0,026.5,000.0,036.4,029.6,12.8,0000.0,0007.69,0003.57,0003.13
2023-09-24 13:48:00,SystemResetWarning,0832.5,5.00,000.00,028.0,026.5,000.0,036.4,029.6,12.6,0000.0,0006.90,0003.58,0003.14
2023-09-24 13:49:00,SystemResetWarning,0832.4,5.00,000.00,028.0,026.5,000.0,036.4,029.6,12.3,0000.0,0006.77,0003.58,0003.14
2023-09-24 13:50:00,SystemResetWarning,0832.4,5.00,000.00,028.0,026.5,000.0,036.4,029.6,12.2,0000.0,0006.33,0003.55,0003.13
2023-09-24 13:51:00,SystemResetWarning,0832.4,5.00,000.00,028.0,026.5,000.0,036.4,029.5,12.3,0000.0,0006.35,0003.52,0003.12
2023-09-24 13:52:00,SystemResetWarning,0832.4,4.99,000.00,028.0,026.5,000.0,036.4,029.5,12.7,0000.0,0006.55,0003.55,0003.14
2023-09-24 13:53:00,SystemResetWarning,0832.4,4.99,000.00,028.0,026.5,000.0,036.4,029.5,13.3,0000.0,0006.90,0003.58,0003.15
2023-09-24 13:54:00,SystemResetWarning,0832.5,5.00,000.00,028.0,026.5,000.0,036.4,029.6,13.0,0000.0,0007.77,0003.63,0003.16
2023-09-24 13:55:00,SystemResetWarning,0832.5,5.00,000.00,028.0,026.5,000.0,036.4,029.6,12.9,0000.0,0008.12,0003.63,0003.17
2023-09-24 13:56:00,SystemResetWarning,0832.5,5.00,000.00,028.0,026.5,000.0,036.4,029.6,12.8,0000.0,0008.35,0003.66,0003.19
2023-09-24 13:57:00,SystemResetWarning,0832.6,5.01,000.00,028.0,026.5,000.0,036.4,029.6,12.9,0000.0,0008.41,0003.69,0003.20
2023-09-24 13:58:00,SystemResetWarning,0832.5,5.01,000.00,028.0,026.5,000.0,036.4,029.6,13.1,0000.0,0008.46,0003.70,0003.22
2023-09-24 13:59:00,SystemResetWarning,0832.6,5.00,000.00,028.0,026.5,000.0,036.4,029.6,12.7,0000.0,0009.34,0003.74,0003.23
